ITASAT

Last updated on Thu Oct 30 2025 00:03:10 GMT+0000 (Coordinated Universal Time)

1 43786U 18099AE 25302.39626323 .00010186 00000+0 54585-3 0 9996 2 43786 97.4391 353.6477 0015311 77.9570 282.3377 15.15083199377915
UTC large
Height (km)
Speed (km/s)
/
Latitude / Longitude
Inclination (degrees)
Orbital Period (minutes)
Azimuth
Elevation
Range (km)
Doppler Factor

Next 0 passes for location: London (51.5072 / 0.1276)

Sorry there are no passes over London.